Year,Month,Day,Hour,Minute,Value (Times are PST for temperature in C)
2020,05,08,00,00,9.20
2020,05,08,00,01,9.20
2020,05,08,00,02,9.10
2020,05,08,00,03,9.10
2020,05,08,00,04,9.00
2020,05,08,00,05,9.00
2020,05,08,00,06,8.90
2020,05,08,00,07,8.90
2020,05,08,00,08,8.90
2020,05,08,00,09,8.90
2020,05,08,00,10,8.80
2020,05,08,00,11,8.80
2020,05,08,00,12,8.80
2020,05,08,00,13,8.80
2020,05,08,00,14,8.70
2020,05,08,00,15,8.70
2020,05,08,00,16,8.70
2020,05,08,00,17,8.70
2020,05,08,00,18,8.70
2020,05,08,00,19,8.70
2020,05,08,00,20,8.70
2020,05,08,00,21,8.70
2020,05,08,00,22,8.70
2020,05,08,00,23,8.70
2020,05,08,00,24,8.70
2020,05,08,00,25,8.80
2020,05,08,00,26,8.80
2020,05,08,00,27,8.80
2020,05,08,00,28,8.80
2020,05,08,00,29,8.80
2020,05,08,00,30,8.80
2020,05,08,00,31,8.80
2020,05,08,00,32,8.80
2020,05,08,00,33,8.80
2020,05,08,00,34,8.80
2020,05,08,00,35,8.80
2020,05,08,00,36,8.80
2020,05,08,00,37,8.80
2020,05,08,00,38,8.90
2020,05,08,00,39,8.90
2020,05,08,00,40,9.00
2020,05,08,00,41,9.00
2020,05,08,00,42,9.10
2020,05,08,00,43,9.10
2020,05,08,00,44,9.20
2020,05,08,00,45,9.20
2020,05,08,00,46,9.30
2020,05,08,00,47,9.40
2020,05,08,00,48,9.40
2020,05,08,00,49,9.50
2020,05,08,00,50,9.50
2020,05,08,00,51,9.60
2020,05,08,00,52,9.60
2020,05,08,00,53,9.60
2020,05,08,00,54,9.60
2020,05,08,00,55,9.60
2020,05,08,00,56,9.60
2020,05,08,00,57,9.60
2020,05,08,00,58,9.50
2020,05,08,00,59,9.50
2020,05,08,01,00,9.50
2020,05,08,01,01,9.40
2020,05,08,01,02,9.40
2020,05,08,01,03,9.40
2020,05,08,01,04,9.40
2020,05,08,01,05,9.50
2020,05,08,01,06,9.50
2020,05,08,01,07,9.50
2020,05,08,01,08,9.60
2020,05,08,01,09,9.60
2020,05,08,01,10,9.60
2020,05,08,01,11,9.60
2020,05,08,01,12,9.70
2020,05,08,01,13,9.70
2020,05,08,01,14,9.70
2020,05,08,01,15,9.80
2020,05,08,01,16,9.80
2020,05,08,01,17,9.90
2020,05,08,01,18,9.90
2020,05,08,01,19,10.00
2020,05,08,01,20,10.00
2020,05,08,01,21,10.10
2020,05,08,01,22,10.10
2020,05,08,01,23,10.10
2020,05,08,01,24,10.20
2020,05,08,01,25,10.20
2020,05,08,01,26,10.20
2020,05,08,01,27,10.20
2020,05,08,01,28,10.30
2020,05,08,01,29,10.30
2020,05,08,01,30,10.30
2020,05,08,01,31,10.30
2020,05,08,01,32,10.40
2020,05,08,01,33,10.40
2020,05,08,01,34,10.40
2020,05,08,01,35,10.40
2020,05,08,01,36,10.40
2020,05,08,01,37,10.40
2020,05,08,01,38,10.50
2020,05,08,01,39,10.50
2020,05,08,01,40,10.50
2020,05,08,01,41,10.50
2020,05,08,01,42,10.60
2020,05,08,01,43,10.60
2020,05,08,01,44,10.60
2020,05,08,01,45,10.60
2020,05,08,01,46,10.60
2020,05,08,01,47,10.60
2020,05,08,01,48,10.50
2020,05,08,01,49,10.60
2020,05,08,01,50,10.50
2020,05,08,01,51,10.50
2020,05,08,01,52,10.50
2020,05,08,01,53,10.50
2020,05,08,01,54,10.50
2020,05,08,01,55,10.50
2020,05,08,01,56,10.50
2020,05,08,01,57,10.40
2020,05,08,01,58,10.30
2020,05,08,01,59,10.30
2020,05,08,02,00,10.20
2020,05,08,02,01,10.10
2020,05,08,02,02,10.10
2020,05,08,02,03,10.00
2020,05,08,02,04,10.00
2020,05,08,02,05,9.90
2020,05,08,02,06,9.80
2020,05,08,02,07,9.80
2020,05,08,02,08,9.80
2020,05,08,02,09,9.70
2020,05,08,02,10,9.70
2020,05,08,02,11,9.60
2020,05,08,02,12,9.60
2020,05,08,02,13,9.50
2020,05,08,02,14,9.50
2020,05,08,02,15,9.40
2020,05,08,02,16,9.40
2020,05,08,02,17,9.40
2020,05,08,02,18,9.30
2020,05,08,02,19,9.30
2020,05,08,02,20,9.30
2020,05,08,02,21,9.30
2020,05,08,02,22,9.30
2020,05,08,02,23,9.20
2020,05,08,02,24,9.20
2020,05,08,02,25,9.20
2020,05,08,02,26,9.30
2020,05,08,02,27,9.30
2020,05,08,02,28,9.30
2020,05,08,02,29,9.40
2020,05,08,02,30,9.40
2020,05,08,02,31,9.50
2020,05,08,02,32,9.60
2020,05,08,02,33,9.60
2020,05,08,02,34,9.70
2020,05,08,02,35,9.80
2020,05,08,02,36,9.80
2020,05,08,02,37,9.90
2020,05,08,02,38,10.00
2020,05,08,02,39,10.00
2020,05,08,02,40,10.10
2020,05,08,02,41,10.20
2020,05,08,02,42,10.20
2020,05,08,02,43,10.30
2020,05,08,02,44,10.30
2020,05,08,02,45,10.40
2020,05,08,02,46,10.50
2020,05,08,02,47,10.50
2020,05,08,02,48,10.60
2020,05,08,02,49,10.60
2020,05,08,02,50,10.70
2020,05,08,02,51,10.70
2020,05,08,02,52,10.80
2020,05,08,02,53,10.80
2020,05,08,02,54,10.90
2020,05,08,02,55,10.90
2020,05,08,02,56,10.90
2020,05,08,02,57,10.90
2020,05,08,02,58,10.90
2020,05,08,02,59,10.90
2020,05,08,03,00,10.90
2020,05,08,03,01,10.90
2020,05,08,03,02,11.00
2020,05,08,03,03,11.00
2020,05,08,03,04,11.00
2020,05,08,03,05,11.10
2020,05,08,03,06,11.10
2020,05,08,03,07,11.20
2020,05,08,03,08,11.20
2020,05,08,03,09,11.30
2020,05,08,03,10,11.30
2020,05,08,03,11,11.40
2020,05,08,03,12,11.50
2020,05,08,03,13,11.50
2020,05,08,03,14,11.60
2020,05,08,03,15,11.60
2020,05,08,03,16,11.70
2020,05,08,03,17,11.70
2020,05,08,03,18,11.80
2020,05,08,03,19,11.80
2020,05,08,03,20,11.80
2020,05,08,03,21,11.90
2020,05,08,03,22,11.90
2020,05,08,03,23,11.90
2020,05,08,03,24,12.00
2020,05,08,03,25,12.00
2020,05,08,03,26,12.10
2020,05,08,03,27,12.10
2020,05,08,03,28,12.10
2020,05,08,03,29,12.10
2020,05,08,03,30,12.10
2020,05,08,03,31,12.20
2020,05,08,03,32,12.20
2020,05,08,03,33,12.30
2020,05,08,03,34,12.30
2020,05,08,03,35,12.30
2020,05,08,03,36,12.30
2020,05,08,03,37,12.30
2020,05,08,03,38,12.30
2020,05,08,03,39,12.30
2020,05,08,03,40,12.30
2020,05,08,03,41,12.30
2020,05,08,03,42,12.30
2020,05,08,03,43,12.30
2020,05,08,03,44,12.30
2020,05,08,03,45,12.30
2020,05,08,03,46,12.30
2020,05,08,03,47,12.40
2020,05,08,03,48,12.30
2020,05,08,03,49,12.30
2020,05,08,03,50,12.30
2020,05,08,03,51,12.30
2020,05,08,03,52,12.30
2020,05,08,03,53,12.30
2020,05,08,03,54,12.30
2020,05,08,03,55,12.30
2020,05,08,03,56,12.30
2020,05,08,03,57,12.30
2020,05,08,03,58,12.30
2020,05,08,03,59,12.30
2020,05,08,04,00,12.30
2020,05,08,04,01,12.30
2020,05,08,04,02,12.30
2020,05,08,04,03,12.30
2020,05,08,04,04,12.30
2020,05,08,04,05,12.30
2020,05,08,04,06,12.40
2020,05,08,04,07,12.40
2020,05,08,04,08,12.40
2020,05,08,04,09,12.40
2020,05,08,04,10,12.40
2020,05,08,04,11,12.40
2020,05,08,04,12,12.40
2020,05,08,04,13,12.40
2020,05,08,04,14,12.40
2020,05,08,04,15,12.40
2020,05,08,04,16,12.40
2020,05,08,04,17,12.40
2020,05,08,04,18,12.40
2020,05,08,04,19,12.40
2020,05,08,04,20,12.40
2020,05,08,04,21,12.40
2020,05,08,04,22,12.40
2020,05,08,04,23,12.40
2020,05,08,04,24,12.40
2020,05,08,04,25,12.40
2020,05,08,04,26,12.30
2020,05,08,04,27,12.30
2020,05,08,04,28,12.30
2020,05,08,04,29,12.30
2020,05,08,04,30,12.30
2020,05,08,04,31,12.30
2020,05,08,04,32,12.30
2020,05,08,04,33,12.30
2020,05,08,04,34,12.30
2020,05,08,04,35,12.30
2020,05,08,04,36,12.30
2020,05,08,04,37,12.30
2020,05,08,04,38,12.30
2020,05,08,04,39,12.30
2020,05,08,04,40,12.30
2020,05,08,04,41,12.30
2020,05,08,04,42,12.30
2020,05,08,04,43,12.30
2020,05,08,04,44,12.30
2020,05,08,04,45,12.30
2020,05,08,04,46,12.30
2020,05,08,04,47,12.30
2020,05,08,04,48,12.30
2020,05,08,04,49,12.30
2020,05,08,04,50,12.30
2020,05,08,04,51,12.30
2020,05,08,04,52,12.30
2020,05,08,04,53,12.30
2020,05,08,04,54,12.30
2020,05,08,04,55,12.30
2020,05,08,04,56,12.30
2020,05,08,04,57,12.30
2020,05,08,04,58,12.30
2020,05,08,04,59,12.40
2020,05,08,05,00,12.40
2020,05,08,05,01,12.40
2020,05,08,05,02,12.40
2020,05,08,05,03,12.40
2020,05,08,05,04,12.40
2020,05,08,05,05,12.40
2020,05,08,05,06,12.40
2020,05,08,05,07,12.40
2020,05,08,05,08,12.40
2020,05,08,05,09,12.40
2020,05,08,05,10,12.40
2020,05,08,05,11,12.40
2020,05,08,05,12,12.40
2020,05,08,05,13,12.40
2020,05,08,05,14,12.50
2020,05,08,05,15,12.50
2020,05,08,05,16,12.50
2020,05,08,05,17,12.50
2020,05,08,05,18,12.50
2020,05,08,05,19,12.50
2020,05,08,05,20,12.50
2020,05,08,05,21,12.50
2020,05,08,05,22,12.40
2020,05,08,05,23,12.40
2020,05,08,05,24,12.40
2020,05,08,05,25,12.40
2020,05,08,05,26,12.30
2020,05,08,05,27,12.30
2020,05,08,05,28,12.30
2020,05,08,05,29,12.30
2020,05,08,05,30,12.20
2020,05,08,05,31,12.20
2020,05,08,05,32,12.20
2020,05,08,05,33,12.20
2020,05,08,05,34,12.20
2020,05,08,05,35,12.20
2020,05,08,05,36,12.20
2020,05,08,05,37,12.20
2020,05,08,05,38,12.20
2020,05,08,05,39,12.20
2020,05,08,05,40,12.10
2020,05,08,05,41,12.10
2020,05,08,05,42,12.10
2020,05,08,05,43,12.10
2020,05,08,05,44,12.10
2020,05,08,05,45,12.10
2020,05,08,05,46,12.00
2020,05,08,05,47,12.00
2020,05,08,05,48,12.00
2020,05,08,05,49,12.00
2020,05,08,05,50,12.00
2020,05,08,05,51,12.00
2020,05,08,05,52,12.00
2020,05,08,05,53,12.00
2020,05,08,05,54,12.10
2020,05,08,05,55,12.10
2020,05,08,05,56,12.10
2020,05,08,05,57,12.10
2020,05,08,05,58,12.10
2020,05,08,05,59,12.10
2020,05,08,06,00,12.10
2020,05,08,06,01,12.10
2020,05,08,06,02,12.10
2020,05,08,06,03,12.10
2020,05,08,06,04,12.10
2020,05,08,06,05,12.10
2020,05,08,06,06,12.00
2020,05,08,06,07,12.00
2020,05,08,06,08,12.00
2020,05,08,06,09,12.00
2020,05,08,06,10,12.00
2020,05,08,06,11,12.00
2020,05,08,06,12,12.00
2020,05,08,06,13,12.00
2020,05,08,06,14,12.00
2020,05,08,06,15,12.00
2020,05,08,06,16,12.00
2020,05,08,06,17,12.00
2020,05,08,06,18,12.00
2020,05,08,06,19,12.10
2020,05,08,06,20,12.10
2020,05,08,06,21,12.10
2020,05,08,06,22,12.10
2020,05,08,06,23,12.10
2020,05,08,06,24,12.10
2020,05,08,06,25,12.10
2020,05,08,06,26,12.10
2020,05,08,06,27,12.10
2020,05,08,06,28,12.20
2020,05,08,06,29,12.20
2020,05,08,06,30,12.20
2020,05,08,06,31,12.20
2020,05,08,06,32,12.20
2020,05,08,06,33,12.20
2020,05,08,06,34,12.20
2020,05,08,06,35,12.20
2020,05,08,06,36,12.30
2020,05,08,06,37,12.30
2020,05,08,06,38,12.30
2020,05,08,06,39,12.30
2020,05,08,06,40,12.30
2020,05,08,06,41,12.40
2020,05,08,06,42,12.40
2020,05,08,06,43,12.40
2020,05,08,06,44,12.40
2020,05,08,06,45,12.50
2020,05,08,06,46,12.50
2020,05,08,06,47,12.60
2020,05,08,06,48,12.60
2020,05,08,06,49,12.70
2020,05,08,06,50,12.70
2020,05,08,06,51,12.70
2020,05,08,06,52,12.80
2020,05,08,06,53,12.80
2020,05,08,06,54,12.80
2020,05,08,06,55,12.90
2020,05,08,06,56,12.90
2020,05,08,06,57,12.90
2020,05,08,06,58,13.00
2020,05,08,06,59,13.00
2020,05,08,07,00,13.10
2020,05,08,07,01,13.10
2020,05,08,07,02,13.10
2020,05,08,07,03,13.20
2020,05,08,07,04,13.20
2020,05,08,07,05,13.20
2020,05,08,07,06,13.30
2020,05,08,07,07,13.30
2020,05,08,07,08,13.40
2020,05,08,07,09,13.40
2020,05,08,07,10,13.50
2020,05,08,07,11,13.50
2020,05,08,07,12,13.60
2020,05,08,07,13,13.60
2020,05,08,07,14,13.70
2020,05,08,07,15,13.70
2020,05,08,07,16,13.80
2020,05,08,07,17,13.80
2020,05,08,07,18,13.80
2020,05,08,07,19,13.90
2020,05,08,07,20,13.90
2020,05,08,07,21,13.90
2020,05,08,07,22,14.00
2020,05,08,07,23,14.00
2020,05,08,07,24,14.00
2020,05,08,07,25,14.10
2020,05,08,07,26,14.10
2020,05,08,07,27,14.10
2020,05,08,07,28,14.10
2020,05,08,07,29,14.10
2020,05,08,07,30,14.20
2020,05,08,07,31,14.20
2020,05,08,07,32,14.20
2020,05,08,07,33,14.20
2020,05,08,07,34,14.20
2020,05,08,07,35,14.30
2020,05,08,07,36,14.30
2020,05,08,07,37,14.30
2020,05,08,07,38,14.30
2020,05,08,07,39,14.30
2020,05,08,07,40,14.30
2020,05,08,07,41,14.40
2020,05,08,07,42,14.40
2020,05,08,07,43,14.40
2020,05,08,07,44,14.40
2020,05,08,07,45,14.50
2020,05,08,07,46,14.60
2020,05,08,07,47,14.60
2020,05,08,07,48,14.70
2020,05,08,07,49,14.70
2020,05,08,07,50,14.80
2020,05,08,07,51,14.80
2020,05,08,07,52,14.80
2020,05,08,07,53,14.80
2020,05,08,07,54,14.80
2020,05,08,07,55,14.90
2020,05,08,07,56,14.90
2020,05,08,07,57,14.90
2020,05,08,07,58,14.90
2020,05,08,07,59,14.90
2020,05,08,08,00,14.90
2020,05,08,08,01,14.90
2020,05,08,08,02,14.90
2020,05,08,08,03,15.00
2020,05,08,08,04,15.00
2020,05,08,08,05,15.00
2020,05,08,08,06,15.00
2020,05,08,08,07,15.10
2020,05,08,08,08,15.10
2020,05,08,08,09,15.20
2020,05,08,08,10,15.20
2020,05,08,08,11,15.20
2020,05,08,08,12,15.30
2020,05,08,08,13,15.30
2020,05,08,08,14,15.30
2020,05,08,08,15,15.40
2020,05,08,08,16,15.40
2020,05,08,08,17,15.40
2020,05,08,08,18,15.40
2020,05,08,08,19,15.40
2020,05,08,08,20,15.40
2020,05,08,08,21,15.40
2020,05,08,08,22,15.40
2020,05,08,08,23,15.40
2020,05,08,08,24,15.40
2020,05,08,08,25,15.40
2020,05,08,08,26,15.40
2020,05,08,08,27,15.40
2020,05,08,08,28,15.40
2020,05,08,08,29,15.50
2020,05,08,08,30,15.50
2020,05,08,08,31,15.60
2020,05,08,08,32,15.60
2020,05,08,08,33,15.60
2020,05,08,08,34,15.60
2020,05,08,08,35,15.60
2020,05,08,08,36,15.60
2020,05,08,08,37,15.60
2020,05,08,08,38,15.60
2020,05,08,08,39,15.70
2020,05,08,08,40,15.70
2020,05,08,08,41,15.70
2020,05,08,08,42,15.70
2020,05,08,08,43,15.70
2020,05,08,08,44,15.80
2020,05,08,08,45,15.80
2020,05,08,08,46,15.80
2020,05,08,08,47,15.80
2020,05,08,08,48,15.80
2020,05,08,08,49,15.80
2020,05,08,08,50,15.90
2020,05,08,08,51,15.90
2020,05,08,08,52,16.00
2020,05,08,08,53,16.00
2020,05,08,08,54,16.00
2020,05,08,08,55,16.10
2020,05,08,08,56,16.10
2020,05,08,08,57,16.10
2020,05,08,08,58,16.20
2020,05,08,08,59,16.20
2020,05,08,09,00,16.20
2020,05,08,09,01,16.20
2020,05,08,09,02,16.30
2020,05,08,09,03,16.30
2020,05,08,09,04,16.30
2020,05,08,09,05,16.30
2020,05,08,09,06,16.30
2020,05,08,09,07,16.40
2020,05,08,09,08,16.40
2020,05,08,09,09,16.40
2020,05,08,09,10,16.40
2020,05,08,09,11,16.40
2020,05,08,09,12,16.40
2020,05,08,09,13,16.40
2020,05,08,09,14,16.40
2020,05,08,09,15,16.40
2020,05,08,09,16,16.40
2020,05,08,09,17,16.40
2020,05,08,09,18,16.40
2020,05,08,09,19,16.50
2020,05,08,09,20,16.50
2020,05,08,09,21,16.50
2020,05,08,09,22,16.50
2020,05,08,09,23,16.50
2020,05,08,09,24,16.50
2020,05,08,09,25,16.50
2020,05,08,09,26,16.50
2020,05,08,09,27,16.50
2020,05,08,09,28,16.60
2020,05,08,09,29,16.60
2020,05,08,09,30,16.50
2020,05,08,09,31,16.50
2020,05,08,09,32,16.50
2020,05,08,09,33,16.50
2020,05,08,09,34,16.50
2020,05,08,09,35,16.50
2020,05,08,09,36,16.50
2020,05,08,09,37,16.50
2020,05,08,09,38,16.50
2020,05,08,09,39,16.60
2020,05,08,09,40,16.60
2020,05,08,09,41,16.60
2020,05,08,09,42,16.60
2020,05,08,09,43,16.60
2020,05,08,09,44,16.60
2020,05,08,09,45,16.60
2020,05,08,09,46,16.60
2020,05,08,09,47,16.60
2020,05,08,09,48,16.70
2020,05,08,09,49,16.80
2020,05,08,09,50,16.80
2020,05,08,09,51,16.80
2020,05,08,09,52,16.80
2020,05,08,09,53,16.80
2020,05,08,09,54,16.80
2020,05,08,09,55,16.80
2020,05,08,09,56,16.90
2020,05,08,09,57,16.90
2020,05,08,09,58,17.00
2020,05,08,09,59,17.10
2020,05,08,10,00,17.20
2020,05,08,10,01,17.30
2020,05,08,10,02,17.40
2020,05,08,10,03,17.50
2020,05,08,10,04,17.60
2020,05,08,10,05,17.60
2020,05,08,10,06,17.70
2020,05,08,10,07,17.70
2020,05,08,10,08,17.70
2020,05,08,10,09,17.70
2020,05,08,10,10,17.60
2020,05,08,10,11,17.60
2020,05,08,10,12,17.60
2020,05,08,10,13,17.50
2020,05,08,10,14,17.50
2020,05,08,10,15,17.40
2020,05,08,10,16,17.40
2020,05,08,10,17,17.40
2020,05,08,10,18,17.30
2020,05,08,10,19,17.30
2020,05,08,10,20,17.30
2020,05,08,10,21,17.30
2020,05,08,10,22,17.30
2020,05,08,10,23,17.30
2020,05,08,10,24,17.40
2020,05,08,10,25,17.40
2020,05,08,10,26,17.40
2020,05,08,10,27,17.50
2020,05,08,10,28,17.60
2020,05,08,10,29,17.60
2020,05,08,10,30,17.70
2020,05,08,10,31,17.70
2020,05,08,10,32,17.80
2020,05,08,10,33,17.80
2020,05,08,10,34,17.80
2020,05,08,10,35,17.80
2020,05,08,10,36,17.80
2020,05,08,10,37,17.80
2020,05,08,10,38,17.80
2020,05,08,10,39,17.80
2020,05,08,10,40,17.80
2020,05,08,10,41,17.80
2020,05,08,10,42,17.80
2020,05,08,10,43,17.80
2020,05,08,10,44,17.80
2020,05,08,10,45,17.80
2020,05,08,10,46,17.70
2020,05,08,10,47,17.70
2020,05,08,10,48,17.70
2020,05,08,10,49,17.70
2020,05,08,10,50,17.70
2020,05,08,10,51,17.80
2020,05,08,10,52,17.80
2020,05,08,10,53,17.90
2020,05,08,10,54,18.00
2020,05,08,10,55,18.10
2020,05,08,10,56,18.20
2020,05,08,10,57,18.20
2020,05,08,10,58,18.20
2020,05,08,10,59,18.30
2020,05,08,11,00,18.30
2020,05,08,11,01,18.30
2020,05,08,11,02,18.30
2020,05,08,11,03,18.30
2020,05,08,11,04,18.30
2020,05,08,11,05,18.30
2020,05,08,11,06,18.30
2020,05,08,11,07,18.30
2020,05,08,11,08,18.30
2020,05,08,11,09,18.30
2020,05,08,11,10,18.30
2020,05,08,11,11,18.30
2020,05,08,11,12,18.40
2020,05,08,11,13,18.50
2020,05,08,11,14,18.60
2020,05,08,11,15,18.70
2020,05,08,11,16,18.70
2020,05,08,11,17,18.80
2020,05,08,11,18,18.80
2020,05,08,11,19,18.80
2020,05,08,11,20,18.90
2020,05,08,11,21,18.90
2020,05,08,11,22,18.90
2020,05,08,11,23,18.80
2020,05,08,11,24,18.80
2020,05,08,11,25,18.80
2020,05,08,11,26,18.70
2020,05,08,11,27,18.70
2020,05,08,11,28,18.80
2020,05,08,11,29,18.80
2020,05,08,11,30,18.90
2020,05,08,11,31,18.90
2020,05,08,11,32,18.90
2020,05,08,11,33,18.90
2020,05,08,11,34,18.80
2020,05,08,11,35,18.80
2020,05,08,11,36,18.80
2020,05,08,11,37,18.80
2020,05,08,11,38,18.80
2020,05,08,11,39,18.80
2020,05,08,11,40,18.80
2020,05,08,11,41,18.80
2020,05,08,11,42,18.80
2020,05,08,11,43,18.90
2020,05,08,11,44,19.00
2020,05,08,11,45,19.00
2020,05,08,11,46,19.10
2020,05,08,11,47,19.20
2020,05,08,11,48,19.20
2020,05,08,11,49,19.20
2020,05,08,11,50,19.30
2020,05,08,11,51,19.30
2020,05,08,11,52,19.40
2020,05,08,11,53,19.40
2020,05,08,11,54,19.50
2020,05,08,11,55,19.60
2020,05,08,11,56,19.70
2020,05,08,11,57,19.80
2020,05,08,11,58,19.80
2020,05,08,11,59,19.80
2020,05,08,12,00,19.80
2020,05,08,12,01,19.80
2020,05,08,12,02,19.70
2020,05,08,12,03,19.70
2020,05,08,12,04,19.70
2020,05,08,12,05,19.80
2020,05,08,12,06,19.90
2020,05,08,12,07,20.00
2020,05,08,12,08,20.10
2020,05,08,12,09,20.00
2020,05,08,12,10,19.90
2020,05,08,12,11,19.80
2020,05,08,12,12,19.80
2020,05,08,12,13,19.90
2020,05,08,12,14,20.00
2020,05,08,12,15,20.00
2020,05,08,12,16,20.10
2020,05,08,12,17,20.00
2020,05,08,12,18,20.00
2020,05,08,12,19,20.00
2020,05,08,12,20,20.10
2020,05,08,12,21,20.20
2020,05,08,12,22,20.10
2020,05,08,12,23,20.10
2020,05,08,12,24,20.10
2020,05,08,12,25,20.00
2020,05,08,12,26,20.10
2020,05,08,12,27,20.10
2020,05,08,12,28,20.10
2020,05,08,12,29,20.10
2020,05,08,12,30,20.20
2020,05,08,12,31,20.30
2020,05,08,12,32,20.40
2020,05,08,12,33,20.40
2020,05,08,12,34,20.40
2020,05,08,12,35,20.50
2020,05,08,12,36,20.60
2020,05,08,12,37,20.60
2020,05,08,12,38,20.70
2020,05,08,12,39,20.80
2020,05,08,12,40,20.80
2020,05,08,12,41,20.90
2020,05,08,12,42,20.90
2020,05,08,12,43,20.90
2020,05,08,12,44,20.80
2020,05,08,12,45,20.80
2020,05,08,12,46,20.80
2020,05,08,12,47,20.80
2020,05,08,12,48,20.80
2020,05,08,12,49,20.80
2020,05,08,12,50,20.80
2020,05,08,12,51,20.80
2020,05,08,12,52,20.80
2020,05,08,12,53,20.80
2020,05,08,12,54,20.90
2020,05,08,12,55,20.90
2020,05,08,12,56,21.00
2020,05,08,12,57,21.10
2020,05,08,12,58,21.10
2020,05,08,12,59,21.10
2020,05,08,13,00,21.10
2020,05,08,13,01,21.10
2020,05,08,13,02,21.00
2020,05,08,13,03,21.10
2020,05,08,13,04,21.10
2020,05,08,13,05,21.20
2020,05,08,13,06,21.20
2020,05,08,13,07,21.30
2020,05,08,13,08,21.40
2020,05,08,13,09,21.50
2020,05,08,13,10,21.60
2020,05,08,13,11,21.70
2020,05,08,13,12,21.80
2020,05,08,13,13,21.80
2020,05,08,13,14,21.70
2020,05,08,13,15,21.80
2020,05,08,13,16,21.80
2020,05,08,13,17,22.00
2020,05,08,13,18,22.10
2020,05,08,13,19,22.20
2020,05,08,13,20,22.20
2020,05,08,13,21,22.20
2020,05,08,13,22,22.10
2020,05,08,13,23,22.00
2020,05,08,13,24,21.90
2020,05,08,13,25,21.90
2020,05,08,13,26,21.90
2020,05,08,13,27,21.90
2020,05,08,13,28,21.90
2020,05,08,13,29,21.90
2020,05,08,13,30,21.90
2020,05,08,13,31,21.90
2020,05,08,13,32,22.00
2020,05,08,13,33,22.00
2020,05,08,13,34,21.90
2020,05,08,13,35,22.00
2020,05,08,13,36,22.00
2020,05,08,13,37,22.00
2020,05,08,13,38,22.10
2020,05,08,13,39,22.10
2020,05,08,13,40,22.00
2020,05,08,13,41,22.00
2020,05,08,13,42,22.00
2020,05,08,13,43,22.00
2020,05,08,13,44,22.10
2020,05,08,13,45,22.20
2020,05,08,13,46,22.20
2020,05,08,13,47,22.30
2020,05,08,13,48,22.30
2020,05,08,13,49,22.30
2020,05,08,13,50,22.40
2020,05,08,13,51,22.40
2020,05,08,13,52,22.50
2020,05,08,13,53,22.60
2020,05,08,13,54,22.70
2020,05,08,13,55,22.80
2020,05,08,13,56,22.80
2020,05,08,13,57,22.90
2020,05,08,13,58,22.90
2020,05,08,13,59,22.80
2020,05,08,14,00,22.80
2020,05,08,14,01,22.80
2020,05,08,14,02,22.80
2020,05,08,14,03,22.90
2020,05,08,14,04,23.00
2020,05,08,14,05,23.10
2020,05,08,14,06,23.30
2020,05,08,14,07,23.40
2020,05,08,14,08,23.40
2020,05,08,14,09,23.50
2020,05,08,14,10,23.50
2020,05,08,14,11,23.70
2020,05,08,14,12,23.90
2020,05,08,14,13,24.00
2020,05,08,14,14,24.00
2020,05,08,14,15,23.90
2020,05,08,14,16,23.80
2020,05,08,14,17,23.80
2020,05,08,14,18,23.80
2020,05,08,14,19,23.80
2020,05,08,14,20,23.80
2020,05,08,14,21,23.80
2020,05,08,14,22,23.80
2020,05,08,14,23,23.90
2020,05,08,14,24,23.90
2020,05,08,14,25,24.00
2020,05,08,14,26,24.10
2020,05,08,14,27,24.20
2020,05,08,14,28,24.20
2020,05,08,14,29,24.20
2020,05,08,14,30,24.20
2020,05,08,14,31,24.10
2020,05,08,14,32,24.10
2020,05,08,14,33,24.00
2020,05,08,14,34,24.00
2020,05,08,14,35,23.90
2020,05,08,14,36,23.90
2020,05,08,14,37,23.90
2020,05,08,14,38,23.90
2020,05,08,14,39,23.90
2020,05,08,14,40,23.80
2020,05,08,14,41,23.70
2020,05,08,14,42,23.60
2020,05,08,14,43,23.60
2020,05,08,14,44,23.70
2020,05,08,14,45,23.70
2020,05,08,14,46,23.70
2020,05,08,14,47,23.70
2020,05,08,14,48,23.60
2020,05,08,14,49,23.60
2020,05,08,14,50,23.60
2020,05,08,14,51,23.70
2020,05,08,14,52,23.70
2020,05,08,14,53,23.80
2020,05,08,14,54,23.80
2020,05,08,14,55,23.80
2020,05,08,14,56,23.80
2020,05,08,14,57,23.80
2020,05,08,14,58,23.90
2020,05,08,14,59,24.00
2020,05,08,15,00,24.00
2020,05,08,15,01,24.10
2020,05,08,15,02,24.20
2020,05,08,15,03,24.30
2020,05,08,15,04,24.40
2020,05,08,15,05,24.40
2020,05,08,15,06,24.40
2020,05,08,15,07,24.40
2020,05,08,15,08,24.40
2020,05,08,15,09,24.40
2020,05,08,15,10,24.40
2020,05,08,15,11,24.30
2020,05,08,15,12,24.30
2020,05,08,15,13,24.30
2020,05,08,15,14,24.30
2020,05,08,15,15,24.30
2020,05,08,15,16,24.30
2020,05,08,15,17,24.30
2020,05,08,15,18,24.30
2020,05,08,15,19,24.30
2020,05,08,15,20,24.20
2020,05,08,15,21,24.20
2020,05,08,15,22,24.20
2020,05,08,15,23,24.20
2020,05,08,15,24,24.30
2020,05,08,15,25,24.40
2020,05,08,15,26,24.50
2020,05,08,15,27,24.50
2020,05,08,15,28,24.50
2020,05,08,15,29,24.40
2020,05,08,15,30,24.40
2020,05,08,15,31,24.30
2020,05,08,15,32,24.30
2020,05,08,15,33,24.20
2020,05,08,15,34,24.30
2020,05,08,15,35,24.30
2020,05,08,15,36,24.30
2020,05,08,15,37,24.30
2020,05,08,15,38,24.20
2020,05,08,15,39,24.20
2020,05,08,15,40,24.20
2020,05,08,15,41,24.20
2020,05,08,15,42,24.30
2020,05,08,15,43,24.30
2020,05,08,15,44,24.40
2020,05,08,15,45,24.40
2020,05,08,15,46,24.30
2020,05,08,15,47,24.30
2020,05,08,15,48,24.30
2020,05,08,15,49,24.30
2020,05,08,15,50,24.20
2020,05,08,15,51,24.20
2020,05,08,15,52,24.30
2020,05,08,15,53,24.30
2020,05,08,15,54,24.30
2020,05,08,15,55,24.30
2020,05,08,15,56,24.40
2020,05,08,15,57,24.40
2020,05,08,15,58,24.40
2020,05,08,15,59,24.40
2020,05,08,16,00,24.40
2020,05,08,16,01,24.30
2020,05,08,16,02,24.30
2020,05,08,16,03,24.40
2020,05,08,16,04,24.40
2020,05,08,16,05,24.40
2020,05,08,16,06,24.40
2020,05,08,16,07,24.40
2020,05,08,16,08,24.40
2020,05,08,16,09,24.40
2020,05,08,16,10,24.40
2020,05,08,16,11,24.40
2020,05,08,16,12,24.40
2020,05,08,16,13,24.40
2020,05,08,16,14,24.40
2020,05,08,16,15,24.50
2020,05,08,16,16,24.60
2020,05,08,16,17,24.60
2020,05,08,16,18,24.70
2020,05,08,16,19,24.60
2020,05,08,16,20,24.60
2020,05,08,16,21,24.60
2020,05,08,16,22,24.50
2020,05,08,16,23,24.50
2020,05,08,16,24,24.40
2020,05,08,16,25,24.30
2020,05,08,16,26,24.30
2020,05,08,16,27,24.20
2020,05,08,16,28,24.20
2020,05,08,16,29,24.20
2020,05,08,16,30,24.20
2020,05,08,16,31,24.20
2020,05,08,16,32,24.30
2020,05,08,16,33,24.30
2020,05,08,16,34,24.30
2020,05,08,16,35,24.30
2020,05,08,16,36,24.20
2020,05,08,16,37,24.20
2020,05,08,16,38,24.20
2020,05,08,16,39,24.10
2020,05,08,16,40,24.10
2020,05,08,16,41,24.10
2020,05,08,16,42,24.00
2020,05,08,16,43,24.00
2020,05,08,16,44,23.90
2020,05,08,16,45,23.90
2020,05,08,16,46,23.90
2020,05,08,16,47,23.90
2020,05,08,16,48,23.90
2020,05,08,16,49,23.90
2020,05,08,16,50,23.90
2020,05,08,16,51,23.90
2020,05,08,16,52,23.90
2020,05,08,16,53,23.90
2020,05,08,16,54,23.90
2020,05,08,16,55,23.80
2020,05,08,16,56,23.80
2020,05,08,16,57,23.80
2020,05,08,16,58,23.80
2020,05,08,16,59,23.80
2020,05,08,17,00,23.80
2020,05,08,17,01,23.80
2020,05,08,17,02,23.80
2020,05,08,17,03,23.80
2020,05,08,17,04,23.80
2020,05,08,17,05,23.80
2020,05,08,17,06,23.80
2020,05,08,17,07,23.70
2020,05,08,17,08,23.70
2020,05,08,17,09,23.70
2020,05,08,17,10,23.70
2020,05,08,17,11,23.70
2020,05,08,17,12,23.70
2020,05,08,17,13,23.70
2020,05,08,17,14,23.70
2020,05,08,17,15,23.70
2020,05,08,17,16,23.80
2020,05,08,17,17,23.80
2020,05,08,17,18,23.80
2020,05,08,17,19,23.80
2020,05,08,17,20,23.80
2020,05,08,17,21,23.80
2020,05,08,17,22,23.80
2020,05,08,17,23,23.80
2020,05,08,17,24,23.80